AirNav   Pilot Hours Calculator
 
 300 users online  

84PA GED Heliport
Birdsboro, Pennsylvania, USA

GOING TO BIRDSBORO?


FAA INFORMATION EFFECTIVE 31 DECEMBER 2020

Location

FAA Identifier: 84PA
Lat/Long: 40-18-33.3340N 075-49-34.7150W
40-18.555567N 075-49.578583W
40.3092594,-75.8263097
(estimated)
Elevation: 440 ft. / 134 m (estimated)
Variation: 11W (1990)
From city: 3 miles N of BIRDSBORO, PA
Time zone: UTC -5 (UTC -4 during Daylight Saving Time)
Zip code: 19508

Heliport Operations

Heliport use: Private use. Permission required prior to landing
Activation date: 08/1994
Control tower: no
ARTCC: NEW YORK CENTER
FSS: WILLIAMSPORT FLIGHT SERVICE STATION
Attendance: UNATNDD
Wind indicator: yes
Segmented circle: no

Heliport Communications

WX ASOS at RDG (8 nm NW): 127.1 (610-372-9863)
WX ASOS at PTW (13 nm E): 119.425 (610-495-0823)
WX AWOS-3 at MQS (20 nm S): 126.25 (610-384-6132)

Nearby radio navigation aids

VOR radial/distance  VOR name  Freq  Var
PTWr302/13.3POTTSTOWN VORTAC116.5009W
ETXr211/17.6EAST TEXAS VOR/DME110.2009W
LRPr071/24.1LANCASTER VOR/DME117.3009W
MXEr352/24.5MODENA VORTAC113.2009W
FJCr224/30.2ALLENTOWN VORTAC117.5010W
RAVr124/38.2RAVINE VORTAC114.6011W
DQOr355/39.2DUPONT VORTAC114.0010W

 
NDB name  Hdg/Dist  Freq  Var  ID
AMBLER306/27.127512WING .. -. --.
BELLGROVE113/34.132810WBZJ -... --.. .---

Heliport Services

Runway Information

Helipad H1

Dimensions: 60 x 60 ft. / 18 x 18 m
Surface: turf
Traffic pattern: leftleft

Heliport Ownership and Management from official FAA records

Ownership: Privately-owned
Owner: GREGORY E DEMKO
910 SCHOFFERS RD
BIRDSBORO, PA 19508
Phone 610-582-9011
Manager: GREG E DEMKO
910 SCHOFFERS RD
BIRDSBORO, PA 19508
Phone 610-582-9011

Heliport Operational Statistics

Aircraft based on the field: 1
Helicopters: 1
    

Additional Remarks

FOR CD CTC READING ATCT AT 610-478-9562; WHEN CLSD CTC HARRISBURG APCH AT 800-932-0712.

Instrument Procedures

There are no published instrument procedures at 84PA.

Some nearby airports with instrument procedures:

KRDG - Reading Regional Airport/Carl A Spaatz Field (8 nm NW)
N47 - Pottstown Municipal Airport (8 nm E)
KPTW - Heritage Field Airport (13 nm E)
N10 - Perkiomen Valley Airport (19 nm E)
KMQS - Chester County G O Carlson Airport (20 nm S)
 
Loc | Ops | Rwys | IFR | FBO | Links
Com | Nav | Svcs | Stats | Notes
Area around 84PA (GED Heliport)
 
Road maps at: MapQuest Bing Google
 
Aerial photo
No photo
 
Sectional chart

 
Airport distance calculator
Flying to GED Heliport? Find the distance to fly.

From to 84PA

Sunrise and sunset
Times for 23-Jan-2021
 Local
(UTC-5)
 Zulu
(UTC)
Morning civil twilight06:5211:52
Sunrise07:2112:21
Sunset17:1022:10
Evening civil twilight17:3922:39

Current date and time
Zulu (UTC)  23-Jan-2021 09:15:22
Local (UTC-5)  23-Jan-2021 04:15:22
 
METAR
KRDG 
7nm NW 
230854Z AUTO 33011G20KT 10SM OVC060 M01/M12 A3000 RMK AO2 SLP168 T10111122 51017
KPTW 
13nm E 
230854Z AUTO 31010G19KT 10SM OVC060 M02/M13 A3001 RMK AO2 SLP161 T10171128 51015
KMQS 
20nm S 
230855Z AUTO 32013KT 10SM FEW044 OVC050 M02/M09 A2999 RMK AO2
TAF
KRDG 
7nm NW 
230528Z 2306/2406 30012G20KT P6SM BKN050 FM231500 31018G28KT P6SM BKN040 FM232200 31015G25KT P6SM FEW060 FM240000 30012KT P6SM SKC
NOTAMs
Click for the latest NOTAMs
NOTAMs are issued by the DoD/FAA and will open in a separate window not controlled by AirNav.

 

 
 

Would you like to see your business listed on this page?

 If your business provides an interesting product or service to pilots, flight crews, aircraft, or users of the GED Heliport, you should consider listing it here.  To start the listing process, click on the button below
 
Add a business
 

Other Pages about GED Heliport

Update a link
 
Copyright © AirNav, LLC. All rights reserved. Privacy Policy  Contact